Location: ??????
(41.3794°N, 22.5014°E)
Time: 08:26:20
(UTC+00:00)

Cosmos 1666 Rocket - Pass Details

Date: 30 November 2020
Orbit: 604 x 632 km, 82.5° (Epoch: 17 January)

Event Time Altitude Azimuth Distance (km) Brightness Sun altitude
Rises 15:44:21 0° 354° (N) 2,907 6.8 -8.1°
Reaches altitude 10° 15:46:36 10° 356° (N) 2,001 6.0 -8.5°
Maximum altitude 15:51:01 72° 81° (E) 663 3.5 -9.3°
Drops below altitude 10° 15:55:27 10° 166° (SSE) 2,000 6.3 -10.0°
Sets 15:57:41 0° 169° (SSE) 2,906 7.1 -10.4°
